Tracking 17844 objects as of 27-August-2016
HD Live streaming from Space Station
objects crossing your sky now

COSMOS 1596

Track COSMOS 1596 now!
COSMOS 1596 is classified as:


NORAD ID: 15267
Int'l Code: 1984-096A
Perigee: 4,722.3 km
Apogee: 35,621.7 km
Inclination: 68.1 °
Period: 717.3 minutes
Semi major axis: 26542 km
RCS: 8.4284 m2 (large)
Launch date: September 7, 1984
Source: Commonwealth of Independent States (former USSR) (CIS)
Launch site: PLESETSK MISSILE AND SPACE COMPLEX (PKMTR)
Your satellite tracking list
Your tracking list is empty





NASA's NSSDC Master Catalog

Two Line Element Set (TLE):
1 15267U 84096A   16239.45573731  .00000851  00000-0  11721-1 0  9991
2 15267  68.1044  20.9105 5820643  96.7704 294.8695  2.00760520234211
Source of the keplerian elements: AFSPC

N2YO: 455